SWA3462 KLAS-KATL

Flight info

Callsign SWA3462
Flight time N/A
Altitude 35000
Route NIITZ4 SSKEE GUP J72 LORAT/N0443F370 J72 ABQ J6 IRW J14 LIT J66 DEVAC RUSSA GLAVN1
Aircraft B738/M-SDE2E3FGHIRWXY/LB1

Departure

Time N/A
Airport Harry Reid International Airport (KLAS)

Arrival

Time 2026-05-05 16:49
Airport Hartsfield Jackson Atlanta International Airport (KATL)
Time Latitude Longitude Altitude Speed Heading
2026-05-05 16:09 34.84746 -88.86243 34958 ft 578 kts 98°
2026-05-05 16:09 34.84003 -88.81441 34976 ft 577 kts 98°
2026-05-05 16:10 34.82511 -88.71823 34974 ft 577 kts 98°
2026-05-05 16:10 34.81016 -88.62241 34967 ft 576 kts 98°
2026-05-05 16:11 34.79523 -88.52723 34966 ft 575 kts 98°
2026-05-05 16:12 34.76499 -88.33598 34964 ft 575 kts 98°
2026-05-05 16:13 34.72674 -88.09690 34961 ft 576 kts 98°
2026-05-05 16:13 34.71130 -88.00126 34957 ft 576 kts 98°
2026-05-05 16:14 34.68084 -87.81433 34987 ft 548 kts 98°
2026-05-05 16:15 34.65121 -87.63385 35026 ft 545 kts 98°
2026-05-05 16:16 34.62097 -87.45271 35019 ft 548 kts 98°
2026-05-05 16:17 34.60005 -87.31622 35006 ft 549 kts 96°
2026-05-05 16:18 34.58026 -87.17915 35024 ft 550 kts 96°
2026-05-05 16:19 34.55990 -87.04282 35033 ft 549 kts 96°
2026-05-05 16:19 34.53837 -86.90770 35038 ft 551 kts 102°
2026-05-05 16:20 34.49004 -86.73176 35016 ft 548 kts 105°
2026-05-05 16:22 34.43402 -86.51693 35042 ft 542 kts 105°
2026-05-05 16:22 34.41123 -86.43038 34608 ft 546 kts 105°
2026-05-05 16:23 34.38812 -86.34287 33498 ft 546 kts 105°
2026-05-05 16:23 34.37653 -86.29911 32893 ft 545 kts 105°
2026-05-05 16:23 34.35360 -86.21267 32017 ft 536 kts 106°
2026-05-05 16:24 34.34223 -86.16993 31565 ft 529 kts 106°
2026-05-05 16:24 34.33111 -86.12803 31213 ft 516 kts 106°
2026-05-05 16:24 34.31019 -86.04756 30710 ft 487 kts 105°
2026-05-05 16:25 34.30019 -86.00876 30467 ft 483 kts 106°
2026-05-05 16:25 34.28038 -85.93207 29817 ft 486 kts 106°
2026-05-05 16:25 34.27035 -85.89345 29385 ft 476 kts 106°
2026-05-05 16:26 34.25083 -85.81866 28530 ft 458 kts 107°
2026-05-05 16:26 34.23177 -85.74585 27725 ft 457 kts 107°
2026-05-05 16:27 34.22205 -85.70876 27317 ft 465 kts 107°
2026-05-05 16:27 34.21234 -85.67178 26873 ft 457 kts 107°
2026-05-05 16:27 34.20283 -85.63560 26451 ft 448 kts 107°
2026-05-05 16:27 34.19346 -85.60001 26044 ft 441 kts 107°
2026-05-05 16:28 34.18424 -85.56504 25630 ft 433 kts 108°
2026-05-05 16:28 34.17512 -85.53049 25260 ft 434 kts 108°
2026-05-05 16:28 34.16586 -85.49544 24872 ft 442 kts 108°
2026-05-05 16:28 34.15666 -85.46068 24444 ft 437 kts 108°
2026-05-05 16:29 34.14749 -85.42603 24035 ft 429 kts 108°
2026-05-05 16:29 34.13847 -85.39201 23659 ft 422 kts 108°
2026-05-05 16:29 34.12975 -85.35863 23399 ft 413 kts 108°
2026-05-05 16:29 34.12110 -85.32516 23132 ft 422 kts 108°
2026-05-05 16:30 34.11230 -85.29109 22850 ft 426 kts 108°
2026-05-05 16:30 34.10357 -85.25733 22482 ft 417 kts 108°
2026-05-05 16:30 34.09497 -85.22414 22067 ft 410 kts 108°
2026-05-05 16:30 34.08650 -85.19154 21678 ft 404 kts 108°
2026-05-05 16:31 34.07812 -85.15933 21303 ft 402 kts 108°
2026-05-05 16:31 34.06969 -85.12698 20934 ft 409 kts 108°
2026-05-05 16:31 34.06127 -85.09476 20532 ft 406 kts 108°
2026-05-05 16:31 34.05207 -85.06300 20106 ft 396 kts 118°
2026-05-05 16:32 34.03650 -85.03643 19793 ft 382 kts 138°
2026-05-05 16:32 34.01706 -85.01526 19463 ft 373 kts 143°
2026-05-05 16:32 33.99777 -84.99587 19107 ft 371 kts 144°
2026-05-05 16:32 33.97774 -84.97587 18751 ft 379 kts 143°
2026-05-05 16:33 33.95760 -84.95537 18338 ft 378 kts 143°
2026-05-05 16:33 33.93808 -84.93519 17912 ft 370 kts 142°
2026-05-05 16:33 33.91880 -84.91516 17519 ft 363 kts 142°
2026-05-05 16:33 33.89988 -84.89553 17227 ft 355 kts 142°
2026-05-05 16:34 33.88120 -84.87619 16866 ft 354 kts 142°
2026-05-05 16:34 33.86238 -84.85676 16553 ft 362 kts 142°
2026-05-05 16:34 33.84326 -84.83702 16159 ft 360 kts 142°
2026-05-05 16:34 33.82446 -84.81757 15782 ft 352 kts 142°
2026-05-05 16:35 33.80606 -84.79855 15428 ft 346 kts 142°
2026-05-05 16:35 33.78787 -84.77977 15079 ft 343 kts 142°
2026-05-05 16:35 33.76975 -84.76109 14733 ft 345 kts 142°
2026-05-05 16:35 33.75155 -84.74213 14385 ft 348 kts 138°
2026-05-05 16:36 33.73764 -84.71849 13971 ft 347 kts 113°
2026-05-05 16:36 33.73210 -84.69106 13667 ft 340 kts 93°
2026-05-05 16:36 33.73203 -84.66286 13325 ft 336 kts 89°
2026-05-05 16:36 33.73249 -84.63521 12964 ft 335 kts 89°
2026-05-05 16:37 33.73279 -84.60705 12615 ft 340 kts 90°
2026-05-05 16:37 33.73294 -84.57877 12254 ft 339 kts 90°
2026-05-05 16:37 33.73299 -84.55086 11901 ft 332 kts 91°
2026-05-05 16:37 33.73299 -84.52337 11554 ft 327 kts 91°
2026-05-05 16:38 33.73299 -84.49614 11226 ft 325 kts 91°
2026-05-05 16:38 33.73297 -84.46934 10885 ft 325 kts 91°
2026-05-05 16:38 33.73296 -84.44204 10662 ft 326 kts 91°
2026-05-05 16:38 33.73296 -84.41486 10518 ft 323 kts 91°
2026-05-05 16:39 33.73297 -84.38836 10359 ft 310 kts 92°
2026-05-05 16:39 33.73298 -84.37967 10309 ft 306 kts 92°
2026-05-05 16:39 33.73298 -84.36190 10184 ft 297 kts 92°
2026-05-05 16:39 33.73298 -84.33752 9976 ft 288 kts 92°
2026-05-05 16:40 33.73297 -84.31347 9734 ft 286 kts 92°
2026-05-05 16:40 33.73298 -84.29200 9674 ft 270 kts 92°
2026-05-05 16:40 33.73302 -84.27057 9516 ft 254 kts 92°
2026-05-05 16:40 33.73305 -84.25003 9388 ft 237 kts 92°
2026-05-05 16:41 33.73307 -84.23093 9119 ft 230 kts 93°
2026-05-05 16:41 33.73307 -84.21170 8683 ft 231 kts 94°
2026-05-05 16:41 33.73307 -84.19227 8228 ft 234 kts 93°
2026-05-05 16:41 33.73309 -84.17293 7756 ft 235 kts 93°
2026-05-05 16:42 33.73310 -84.15326 7310 ft 235 kts 93°
2026-05-05 16:42 33.73173 -84.13391 6841 ft 231 kts 115°
2026-05-05 16:42 33.72199 -84.11970 6386 ft 217 kts 156°
2026-05-05 16:42 33.70813 -84.11517 5946 ft 210 kts 177°
2026-05-05 16:43 33.69374 -84.11627 5491 ft 207 kts 193°
2026-05-05 16:43 33.67982 -84.12030 5025 ft 204 kts 194°
2026-05-05 16:43 33.66658 -84.12622 4551 ft 206 kts 214°
2026-05-05 16:43 33.65618 -84.13788 4049 ft 206 kts 234°
2026-05-05 16:44 33.65281 -84.15418 3814 ft 198 kts 261°
2026-05-05 16:44 33.65127 -84.17021 3650 ft 189 kts 259°
2026-05-05 16:44 33.65028 -84.18547 3405 ft 176 kts 263°
2026-05-05 16:44 33.65000 -84.19972 3282 ft 164 kts 265°
2026-05-05 16:45 33.64997 -84.21270 3053 ft 152 kts 266°
2026-05-05 16:45 33.64987 -84.22530 2912 ft 150 kts 262°
2026-05-05 16:45 33.64958 -84.23819 2890 ft 156 kts 265°
2026-05-05 16:45 33.64966 -84.25109 2866 ft 153 kts 265°
2026-05-05 16:46 33.65003 -84.26391 2886 ft 155 kts 268°
2026-05-05 16:46 33.65002 -84.27640 2827 ft 143 kts 259°
2026-05-05 16:46 33.64971 -84.28827 2864 ft 150 kts 264°
2026-05-05 16:46 33.64967 -84.30082 2773 ft 151 kts 261°
2026-05-05 16:47 33.64956 -84.31347 2575 ft 150 kts 262°
2026-05-05 16:47 33.64957 -84.32620 2384 ft 154 kts 265°
2026-05-05 16:47 33.64961 -84.33874 2163 ft 146 kts 262°
2026-05-05 16:47 33.64957 -84.35074 1995 ft 144 kts 264°
2026-05-05 16:48 33.64958 -84.36285 1819 ft 147 kts 264°
2026-05-05 16:48 33.64974 -84.37533 1609 ft 150 kts 263°
2026-05-05 16:48 33.64968 -84.38747 1472 ft 143 kts 262°
2026-05-05 16:48 33.64952 -84.39929 1210 ft 139 kts 263°
2026-05-05 16:49 33.64957 -84.41081 1026 ft 141 kts 264°
2026-05-05 16:49 33.64953 -84.42069 1006 ft 114 kts 269°
2026-05-05 16:49 33.64955 -84.42833 1005 ft 63 kts 270°
2026-05-05 16:49 33.64953 -84.43033 1005 ft 0 kts 265°
2026-05-05 16:50 33.64950 -84.43060 1005 ft 11 kts 262°
2026-05-05 16:50 33.64920 -84.43192 1006 ft 17 kts 249°
2026-05-05 16:50 33.64866 -84.43308 1005 ft 11 kts 221°
2026-05-05 16:50 33.64814 -84.43311 1006 ft 13 kts 118°
2026-05-05 16:51 33.64793 -84.43153 1006 ft 26 kts 89°
2026-05-05 16:51 33.64793 -84.42936 1006 ft 25 kts 90°
2026-05-05 16:51 33.64791 -84.42731 1005 ft 24 kts 90°
2026-05-05 16:51 33.64790 -84.42539 1005 ft 23 kts 90°
2026-05-05 16:52 33.64790 -84.42391 1005 ft 9 kts 94°
2026-05-05 16:52 33.64756 -84.42331 1004 ft 9 kts 155°
2026-05-05 16:52 33.64683 -84.42326 1004 ft 15 kts 182°
2026-05-05 16:52 33.64563 -84.42348 1005 ft 17 kts 214°
2026-05-05 16:53 33.64541 -84.42479 1005 ft 16 kts 274°
2026-05-05 16:53 33.64544 -84.42612 1005 ft 16 kts 271°
2026-05-05 16:53 33.64545 -84.42741 1005 ft 15 kts 270°
2026-05-05 16:53 33.64542 -84.42886 1006 ft 20 kts 268°
2026-05-05 16:54 33.64539 -84.42993 1006 ft 12 kts 268°
2026-05-05 16:54 33.64537 -84.43114 1006 ft 16 kts 270°
2026-05-05 16:54 33.64540 -84.43268 1006 ft 21 kts 271°
2026-05-05 16:54 33.64512 -84.43414 1006 ft 17 kts 209°
2026-05-05 16:55 33.64436 -84.43406 1005 ft 17 kts 159°
2026-05-05 16:55 33.64285 -84.43395 1005 ft 16 kts 178°
2026-05-05 16:55 33.64176 -84.43391 1005 ft 16 kts 180°
2026-05-05 16:55 33.64070 -84.43394 1005 ft 15 kts 180°
2026-05-05 16:56 33.64018 -84.43348 1005 ft 6 kts 89°
2026-05-05 16:56 33.64018 -84.43339 1005 ft 0 kts 90°
2026-05-05 16:56 33.64018 -84.43336 1005 ft 2 kts 89°
2026-05-05 16:56 33.64018 -84.43335 1005 ft 0 kts 89°